N420HE CYWG-CYYZ

Flight info

Callsign N420HE
Flight time N/A
Altitude 39000
Route RORMA DCT AXOMA DCT SIDPO DCT DEGVA DCT AGLIN DCT OTNIK BOXUM7
Aircraft HDJT/L-SABDGRWY/H

Departure

Time N/A
Airport Winnipeg / James Armstrong Richardson International Airport (CYWG)

Arrival

Time 2026-05-06 22:16
Airport Toronto Pearson International Airport (CYYZ)
Time Latitude Longitude Altitude Speed Heading
2026-05-06 21:46 45.31988 -81.68681 38949 ft 443 kts 140°
2026-05-06 21:46 45.29937 -81.65412 38949 ft 443 kts 140°
2026-05-06 21:47 45.25764 -81.59021 38949 ft 436 kts 146°
2026-05-06 21:47 45.21300 -81.53182 38948 ft 437 kts 146°
2026-05-06 21:48 45.16889 -81.47339 38950 ft 437 kts 146°
2026-05-06 21:48 45.12430 -81.41502 38951 ft 437 kts 146°
2026-05-06 21:49 45.07975 -81.35649 38946 ft 437 kts 146°
2026-05-06 21:49 45.03511 -81.29817 38952 ft 437 kts 146°
2026-05-06 21:50 45.01299 -81.26920 38682 ft 426 kts 147°
2026-05-06 21:50 44.99160 -81.24111 38088 ft 413 kts 147°
2026-05-06 21:50 44.97080 -81.21403 37549 ft 400 kts 148°
2026-05-06 21:50 44.95089 -81.18822 37048 ft 388 kts 148°
2026-05-06 21:51 44.93128 -81.16274 36533 ft 378 kts 149°
2026-05-06 21:51 44.91220 -81.13793 36053 ft 368 kts 149°
2026-05-06 21:51 44.89356 -81.11373 35572 ft 360 kts 150°
2026-05-06 21:51 44.87532 -81.09010 35092 ft 352 kts 150°
2026-05-06 21:52 44.85745 -81.06698 34646 ft 345 kts 151°
2026-05-06 21:52 44.83994 -81.04429 34197 ft 339 kts 151°
2026-05-06 21:52 44.82273 -81.02202 33718 ft 333 kts 152°
2026-05-06 21:52 44.80589 -81.00025 33270 ft 325 kts 152°
2026-05-06 21:53 44.78966 -80.97927 32850 ft 317 kts 152°
2026-05-06 21:53 44.77356 -80.95853 32434 ft 311 kts 153°
2026-05-06 21:53 44.75775 -80.93818 32030 ft 306 kts 153°
2026-05-06 21:53 44.74208 -80.91805 31634 ft 304 kts 153°
2026-05-06 21:54 44.72642 -80.89797 31231 ft 306 kts 153°
2026-05-06 21:54 44.71072 -80.87776 30835 ft 307 kts 153°
2026-05-06 21:54 44.69498 -80.85750 30460 ft 307 kts 153°
2026-05-06 21:54 44.67923 -80.83726 30107 ft 307 kts 153°
2026-05-06 21:55 44.66347 -80.81704 29619 ft 309 kts 153°
2026-05-06 21:55 44.64771 -80.79692 29047 ft 311 kts 153°
2026-05-06 21:55 44.63175 -80.77641 28495 ft 311 kts 153°
2026-05-06 21:55 44.62095 -80.76255 28130 ft 311 kts 153°
2026-05-06 21:56 44.59973 -80.73541 27415 ft 312 kts 153°
2026-05-06 21:56 44.58364 -80.71490 26894 ft 313 kts 153°
2026-05-06 21:56 44.56750 -80.69429 26382 ft 315 kts 153°
2026-05-06 21:56 44.55128 -80.67354 25879 ft 316 kts 153°
2026-05-06 21:57 44.53496 -80.65274 25386 ft 318 kts 153°
2026-05-06 21:57 44.51857 -80.63187 24896 ft 319 kts 153°
2026-05-06 21:57 44.50214 -80.61095 24419 ft 320 kts 152°
2026-05-06 21:57 44.49121 -80.59703 24107 ft 321 kts 152°
2026-05-06 21:58 44.46903 -80.56883 23470 ft 323 kts 152°
2026-05-06 21:58 44.45803 -80.55486 23145 ft 322 kts 152°
2026-05-06 21:58 44.43606 -80.52695 22578 ft 322 kts 152°
2026-05-06 21:58 44.41942 -80.50587 22156 ft 324 kts 151°
2026-05-06 21:59 44.40272 -80.48472 21730 ft 324 kts 151°
2026-05-06 21:59 44.38601 -80.46353 21300 ft 324 kts 151°
2026-05-06 21:59 44.36928 -80.44238 20869 ft 324 kts 150°
2026-05-06 21:59 44.35817 -80.42836 20584 ft 325 kts 150°
2026-05-06 22:00 44.33578 -80.40006 20092 ft 326 kts 150°
2026-05-06 22:00 44.31892 -80.37880 19666 ft 327 kts 150°
2026-05-06 22:00 44.30206 -80.35754 19236 ft 327 kts 149°
2026-05-06 22:00 44.29085 -80.34340 18948 ft 328 kts 149°
2026-05-06 22:01 44.26817 -80.31485 18369 ft 329 kts 149°
2026-05-06 22:01 44.25691 -80.30070 18056 ft 330 kts 149°
2026-05-06 22:01 44.23429 -80.27227 17460 ft 337 kts 148°
2026-05-06 22:01 44.22217 -80.25725 17154 ft 353 kts 148°
2026-05-06 22:02 44.19790 -80.22665 16527 ft 345 kts 146°
2026-05-06 22:02 44.17985 -80.20364 16059 ft 356 kts 147°
2026-05-06 22:02 44.16156 -80.18095 15593 ft 348 kts 147°
2026-05-06 22:02 44.14362 -80.15852 15144 ft 345 kts 146°
2026-05-06 22:03 44.13190 -80.14376 14839 ft 343 kts 146°
2026-05-06 22:03 44.11428 -80.12162 14390 ft 339 kts 146°
2026-05-06 22:03 44.09677 -80.09976 13940 ft 337 kts 146°
2026-05-06 22:03 44.07374 -80.07101 13321 ft 334 kts 145°
2026-05-06 22:04 44.05657 -80.04948 12874 ft 331 kts 145°
2026-05-06 22:04 44.03972 -80.02838 12447 ft 318 kts 145°
2026-05-06 22:04 44.02894 -80.01487 12158 ft 314 kts 145°
2026-05-06 22:04 44.01252 -79.99509 11738 ft 310 kts 149°
2026-05-06 22:05 43.99529 -79.97750 11341 ft 306 kts 151°
2026-05-06 22:05 43.97812 -79.96006 10956 ft 305 kts 150°
2026-05-06 22:05 43.96130 -79.94222 10551 ft 303 kts 149°
2026-05-06 22:05 43.93922 -79.91887 10012 ft 299 kts 149°
2026-05-06 22:06 43.92267 -79.90202 9595 ft 286 kts 151°
2026-05-06 22:06 43.91131 -79.89360 9275 ft 264 kts 167°
2026-05-06 22:06 43.88874 -79.89288 8654 ft 249 kts 200°
2026-05-06 22:06 43.87749 -79.89737 8397 ft 257 kts 200°
2026-05-06 22:07 43.85984 -79.90197 8006 ft 260 kts 189°
2026-05-06 22:07 43.84160 -79.90199 7626 ft 263 kts 182°
2026-05-06 22:07 43.82338 -79.90149 7244 ft 260 kts 185°
2026-05-06 22:07 43.80537 -79.90271 6873 ft 258 kts 187°
2026-05-06 22:08 43.78757 -79.90400 6501 ft 249 kts 185°
2026-05-06 22:08 43.77069 -79.90442 5994 ft 237 kts 185°
2026-05-06 22:08 43.75455 -79.90494 5562 ft 229 kts 186°
2026-05-06 22:08 43.73872 -79.90568 5134 ft 227 kts 186°
2026-05-06 22:09 43.72293 -79.90648 4719 ft 227 kts 185°
2026-05-06 22:09 43.70713 -79.90722 4293 ft 226 kts 186°
2026-05-06 22:09 43.69161 -79.90800 3960 ft 224 kts 186°
2026-05-06 22:09 43.67603 -79.90875 3706 ft 225 kts 186°
2026-05-06 22:10 43.66037 -79.90635 3444 ft 230 kts 165°
2026-05-06 22:10 43.64546 -79.89831 3190 ft 230 kts 160°
2026-05-06 22:10 43.63119 -79.89004 3026 ft 214 kts 160°
2026-05-06 22:10 43.61754 -79.88213 3013 ft 209 kts 160°
2026-05-06 22:11 43.60475 -79.87481 3002 ft 192 kts 161°
2026-05-06 22:11 43.59275 -79.86786 3001 ft 184 kts 160°
2026-05-06 22:11 43.58096 -79.86099 3008 ft 185 kts 158°
2026-05-06 22:11 43.57123 -79.84948 3017 ft 190 kts 118°
2026-05-06 22:12 43.56911 -79.83180 3026 ft 189 kts 77°
2026-05-06 22:12 43.57302 -79.81485 3023 ft 183 kts 60°
2026-05-06 22:12 43.58025 -79.80097 3020 ft 185 kts 44°
2026-05-06 22:12 43.58913 -79.78749 3022 ft 189 kts 44°
2026-05-06 22:13 43.59825 -79.77401 2848 ft 193 kts 42°
2026-05-06 22:13 43.60747 -79.76092 2592 ft 184 kts 42°
2026-05-06 22:13 43.61577 -79.74862 2346 ft 165 kts 42°
2026-05-06 22:13 43.62350 -79.73763 2130 ft 158 kts 41°
2026-05-06 22:14 43.63097 -79.72665 1919 ft 156 kts 43°
2026-05-06 22:14 43.63848 -79.71588 1712 ft 160 kts 41°
2026-05-06 22:14 43.64573 -79.70524 1458 ft 143 kts 43°
2026-05-06 22:14 43.65210 -79.69596 1239 ft 128 kts 41°
2026-05-06 22:15 43.65798 -79.68755 1074 ft 118 kts 44°
2026-05-06 22:15 43.66377 -79.67916 917 ft 121 kts 44°
2026-05-06 22:15 43.66938 -79.67079 742 ft 117 kts 44°
2026-05-06 22:15 43.67501 -79.66277 599 ft 115 kts 44°
2026-05-06 22:16 43.68017 -79.65535 560 ft 93 kts 46°
2026-05-06 22:16 43.68389 -79.64996 560 ft 64 kts 45°
2026-05-06 22:16 43.68575 -79.64726 560 ft 30 kts 46°
2026-05-06 22:16 43.68694 -79.64523 564 ft 25 kts 61°
2026-05-06 22:17 43.68748 -79.64323 558 ft 19 kts 76°
2026-05-06 22:17 43.68771 -79.64155 561 ft 18 kts 79°
2026-05-06 22:17 43.68807 -79.63994 565 ft 17 kts 59°
2026-05-06 22:17 43.68824 -79.63960 569 ft 0 kts 51°
2026-05-06 22:19 43.68834 -79.63944 565 ft 8 kts 49°
2026-05-06 22:19 43.68895 -79.63861 569 ft 13 kts 23°
2026-05-06 22:19 43.68961 -79.63904 566 ft 12 kts 316°
2026-05-06 22:19 43.68988 -79.63940 562 ft 0 kts 316°
2026-05-06 22:21 43.69007 -79.63965 561 ft 10 kts 316°
2026-05-06 22:21 43.69077 -79.64055 560 ft 15 kts 317°
2026-05-06 22:21 43.69158 -79.64159 560 ft 17 kts 317°
2026-05-06 22:21 43.69249 -79.64277 561 ft 17 kts 315°
2026-05-06 22:22 43.69232 -79.64387 564 ft 13 kts 227°
2026-05-06 22:22 43.69160 -79.64492 570 ft 17 kts 226°
2026-05-06 22:22 43.69077 -79.64612 560 ft 17 kts 227°
2026-05-06 22:22 43.69000 -79.64724 562 ft 15 kts 226°
2026-05-06 22:23 43.68981 -79.64819 562 ft 11 kts 314°
2026-05-06 22:23 43.68991 -79.64910 559 ft 11 kts 231°
2026-05-06 22:23 43.68946 -79.64988 559 ft 10 kts 231°
2026-05-06 22:23 43.68903 -79.65054 562 ft 8 kts 227°
2026-05-06 22:24 43.68871 -79.65082 563 ft 2 kts 143°
2026-05-06 22:24 43.68861 -79.65066 556 ft 3 kts 104°
2026-05-06 22:24 43.68864 -79.65057 556 ft 0 kts
2026-05-06 22:24 43.68865 -79.65058 556 ft 0 kts 335°